Weather in Orsha

Russia / Pskov Oblast     57°02′34″N   29°19′40″E
temp.,
°C
wind,
m/s
gust,
m/s
humid.,
%
clouds,
%
prec.,
mm/h
press.,
hPa
HPBL,
m
21 april, wed
wed2100:00+6e1486100 0.4 1013272
03:00+6ne118991 0.5 101238
06:00+5nne128991 0.1 101083
09:00+7n127899 0.3 1009629
12:00+8w336789 0.6 10071067
15:00+10w3555100 0.8 10061670
18:00+10sw2562100 0.1 1006578
21:00+7ssw287783 0.1 1006170
22 april, thu
thu2200:00+7ssw4117989 0.3 1005376
03:00+6ssw411895 0.3 1006282
06:00+4ssw3991100 0.0 1006222
09:00+9sw36645 0.0 1007442
12:00+13ssw484510 0.0 10071872
15:00+13ssw495699 0.1 10061652
18:00+8w5882100 1.3 1007781
21:00+5ssw2783100 1.3 1008190
23 april, fri
fri2300:00+5ssw3783100 0.0 1009270
03:00+4sw2884100 0.0 1009335
06:00+2ssw398190 0.0 1009454
09:00+5ssw510595 0.0 10101211
12:00+7sw5847100 0.0 10102063
15:00+7sw575295 0.1 10111611
18:00+7sw464814 0.1 10111818
21:00+3ssw11695 0.1 101210
24 april, sat
sat2400:00+1s227871 0.0 101138
03:000sw24925 0.0 101088
06:00−1sw259984 0.0 1010136
09:00+2wsw3486100 0.1 1009702
12:00+4wsw3472100 0.1 1009873
15:00+6wsw345894 0.3 10081276
18:00+4sw458095 0.7 1008774
21:00+1wsw379251 0.8 1009252
25 april, sun
sun2500:00+1wsw4793100 0.1 1008630
03:00+1wsw3897100 0.8 1008379
06:00+1sw3797100 0.3 1008369
09:00+3sw457985 0.4 1008887
12:00+2ssw4793100 1.7 1009557
15:00+3ssw3698100 3.8 1010404
18:00+3ssw2497100 0.9 1011436
21:00+1w2599100 5.6 1012234